Radiation Dose at Monitoring Post of Fukushima Daini Nuclear Power Station
Date,Time,MP-1(microSv/h),MP-2(microSv/h),MP-3(microSv/h),MP-4(microSv/h),MP-5(microSv/h),MP-6(microSv/h),MP-7(microSv/h),Wind Direction,Wind Velocity(m/s),Rain
2013/10/14,00:00,0.9,0.6,0.9,0.8,0.8,0.4,0.3,northwest,4.2,No
2013/10/14,00:10,0.9,0.6,0.9,0.8,0.8,0.4,0.3,north-northwest,1.5,No
2013/10/14,00:20,0.9,0.6,0.9,0.8,0.8,0.4,0.3,north,2.5,No
2013/10/14,00:30,0.9,0.6,0.9,0.8,0.8,0.4,0.3,north,2.2,No
2013/10/14,00:40,0.9,0.6,0.9,0.8,0.8,0.4,0.3,north-northwest,1.7,No
2013/10/14,00:50,0.9,0.6,0.9,0.8,0.8,0.4,0.3,west-northwest,3.0,No
2013/10/14,01:00,0.9,0.6,0.9,0.8,0.8,0.4,0.3,north-northwest,2.2,No
2013/10/14,01:10,0.9,0.6,0.9,0.8,0.8,0.4,0.3,northwest,2.9,No
2013/10/14,01:20,0.9,0.6,0.9,0.8,0.8,0.4,0.3,north,2.5,No
2013/10/14,01:30,0.9,0.6,0.9,0.8,0.8,0.4,0.3,north-northwest,3.1,No
2013/10/14,01:40,0.9,0.6,0.9,0.8,0.8,0.4,0.3,north-northwest,3.7,No
2013/10/14,01:50,0.9,0.6,0.9,0.8,0.8,0.4,0.3,north-northwest,3.3,No
2013/10/14,02:00,0.9,0.6,0.9,0.8,0.8,0.4,0.3,northwest,3.0,No
2013/10/14,02:10,0.9,0.6,0.9,0.8,0.8,0.4,0.3,west-northwest,2.0,No
2013/10/14,02:20,0.9,0.6,0.9,0.8,0.8,0.4,0.3,-,CALM,No
2013/10/14,02:30,0.9,0.6,0.9,0.8,0.8,0.4,0.3,west-northwest,1.4,No
2013/10/14,02:40,0.9,0.6,0.9,0.8,0.8,0.4,0.3,west,2.8,No
2013/10/14,02:50,0.9,0.6,0.9,0.8,0.8,0.4,0.3,west-southwest,2.4,No
2013/10/14,03:00,0.9,0.6,0.9,0.8,0.8,0.4,0.3,south-southwest,1.2,No
2013/10/14,03:10,0.9,0.6,0.9,0.8,0.8,0.4,0.3,south,0.8,No
2013/10/14,03:20,0.9,0.6,0.9,0.8,0.8,0.4,0.3,south-southwest,1.2,No
2013/10/14,03:30,0.9,0.6,0.9,0.8,0.8,0.4,0.3,-,CALM,No
2013/10/14,03:40,0.9,0.6,0.9,0.8,0.8,0.4,0.3,southwest,0.9,No
2013/10/14,03:50,0.9,0.6,0.9,0.8,0.8,0.4,0.3,southwest,1.6,No
2013/10/14,04:00,0.9,0.6,0.9,0.8,0.8,0.4,0.3,west-southwest,2.4,No
2013/10/14,04:10,0.9,0.6,0.9,0.8,0.8,0.4,0.3,west-southwest,3.1,No
2013/10/14,04:20,0.9,0.6,0.9,0.8,0.8,0.4,0.3,west-southwest,1.6,No
2013/10/14,04:30,0.9,0.6,0.9,0.8,0.8,0.4,0.3,west-southwest,2.2,No
2013/10/14,04:40,0.9,0.6,0.9,0.8,0.8,0.4,0.3,west-southwest,1.0,No
2013/10/14,04:50,0.9,0.6,0.9,0.8,0.8,0.4,0.3,north,0.8,No
2013/10/14,05:00,0.9,0.6,0.9,0.8,0.8,0.4,0.3,north,0.7,No
2013/10/14,05:10,0.9,0.6,0.9,0.8,0.8,0.4,0.3,northeast,1.0,No
2013/10/14,05:20,0.9,0.6,0.9,0.8,0.8,0.4,0.3,north-northeast,1.4,No
2013/10/14,05:30,0.9,0.6,0.9,0.8,0.8,0.4,0.3,north-northeast,1.8,No
2013/10/14,05:40,0.9,0.6,0.9,0.8,0.8,0.4,0.3,north,2.2,No
2013/10/14,05:50,0.9,0.6,0.9,0.8,0.8,0.4,0.3,north,3.8,No
2013/10/14,06:00,0.9,0.6,0.9,0.8,0.8,0.4,0.3,north,4.5,No
2013/10/14,06:10,0.9,0.6,0.9,0.8,0.8,0.4,0.3,north,4.1,No
2013/10/14,06:20,0.9,0.6,0.9,0.8,0.8,0.4,0.3,north,4.6,No
2013/10/14,06:30,0.9,0.6,0.9,0.8,0.8,0.4,0.3,north,4.2,No
2013/10/14,06:40,0.9,0.6,0.9,0.8,0.8,0.4,0.3,north,4.5,No
2013/10/14,06:50,0.9,0.6,0.9,0.8,0.8,0.4,0.3,north,4.9,No
2013/10/14,07:00,0.9,0.6,0.9,0.8,0.8,0.4,0.3,north,5.3,No
2013/10/14,07:10,0.9,0.6,0.9,0.8,0.8,0.4,0.3,north,5.0,No
2013/10/14,07:20,0.9,0.6,0.9,0.8,0.8,0.4,0.3,north,4.6,No
2013/10/14,07:30,0.9,0.6,0.9,0.8,0.8,0.4,0.3,north,3.9,No
2013/10/14,07:40,0.9,0.6,0.9,0.8,0.8,0.4,0.3,north,3.9,No
2013/10/14,07:50,0.9,0.6,0.9,0.8,0.8,0.4,0.3,north,3.6,No
2013/10/14,08:00,0.9,0.6,0.9,0.8,0.8,0.4,0.3,north,2.8,No
2013/10/14,08:10,0.9,0.6,0.9,0.8,0.8,0.4,0.3,north,2.3,No
2013/10/14,08:20,0.9,0.6,0.9,0.8,0.8,0.4,0.3,north,3.3,No
2013/10/14,08:30,0.9,0.6,0.9,0.8,0.8,0.4,0.3,north-northwest,2.5,No
2013/10/14,08:40,0.9,0.6,0.9,0.8,0.8,0.4,0.3,northwest,1.4,No
2013/10/14,08:50,0.9,0.6,0.9,0.8,0.8,0.4,0.3,north-northwest,1.8,No
2013/10/14,09:00,0.9,0.6,0.9,0.8,0.8,0.4,0.3,-,CALM,No
2013/10/14,09:10,0.9,0.6,0.9,0.8,0.8,0.4,0.3,northeast,0.8,No
2013/10/14,09:20,0.9,0.6,0.9,0.8,0.8,0.4,0.3,east,0.9,No
2013/10/14,09:30,0.9,0.6,0.9,0.8,0.8,0.4,0.3,southeast,1.2,No
2013/10/14,09:40,0.9,0.6,0.9,0.8,0.8,0.4,0.3,southeast,1.1,No
2013/10/14,09:50,0.9,0.6,0.9,0.8,0.8,0.4,0.3,east,1.5,No
2013/10/14,10:00,0.9,0.6,0.9,0.8,0.8,0.4,0.3,northeast,1.1,No
2013/10/14,10:10,0.9,0.6,0.9,0.8,0.8,0.4,0.3,east-southeast,1.3,No
2013/10/14,10:20,0.9,0.6,0.9,0.8,0.8,0.4,0.3,southeast,1.5,No
2013/10/14,10:30,0.9,0.6,0.9,0.8,0.8,0.4,0.3,east-southeast,2.2,No
2013/10/14,10:40,0.9,0.6,0.9,0.8,0.8,0.4,0.3,east-southeast,1.9,No
2013/10/14,10:50,0.9,0.6,0.9,0.8,0.8,0.4,0.3,east-southeast,2.1,No
2013/10/14,11:00,0.9,0.6,0.9,0.8,0.8,0.4,0.3,southeast,2.2,No
2013/10/14,11:10,0.9,0.6,0.9,0.8,0.8,0.4,0.3,southeast,2.2,No
2013/10/14,11:20,0.9,0.6,0.9,0.8,0.8,0.4,0.3,southeast,2.5,No
2013/10/14,11:30,0.9,0.6,0.9,0.8,0.8,0.4,0.3,southeast,2.5,No
2013/10/14,11:40,0.9,0.6,0.9,0.8,0.8,0.4,0.3,southeast,2.7,No
2013/10/14,11:50,0.9,0.6,0.9,0.8,0.8,0.4,0.3,southeast,3.0,No
2013/10/14,12:00,0.9,0.6,0.9,0.8,0.8,0.4,0.3,south-southeast,2.5,No
2013/10/14,12:10,0.9,0.6,0.9,0.8,0.8,0.4,0.3,south-southeast,2.5,No
2013/10/14,12:20,0.9,0.6,0.9,0.8,0.8,0.4,0.3,south-southeast,3.1,No
2013/10/14,12:30,0.9,0.6,0.9,0.8,0.8,0.4,0.3,south,1.6,No
2013/10/14,12:40,0.9,0.6,0.9,0.8,0.8,0.4,0.3,southeast,3.2,No
2013/10/14,12:50,0.9,0.6,0.9,0.8,0.8,0.4,0.3,southeast,2.9,No
2013/10/14,13:00,0.9,0.6,0.9,0.8,0.8,0.4,0.3,south-southeast,3.8,No
2013/10/14,13:10,0.9,0.6,0.9,0.8,0.8,0.4,0.3,south-southeast,3.1,No
2013/10/14,13:20,0.9,0.6,0.9,0.8,0.8,0.4,0.3,south-southeast,3.3,No
2013/10/14,13:30,0.9,0.6,0.9,0.8,0.8,0.4,0.3,south-southeast,3.0,No
2013/10/14,13:40,0.9,0.6,0.9,0.8,0.8,0.4,0.3,southeast,2.4,No
2013/10/14,13:50,0.9,0.6,0.9,0.8,0.8,0.4,0.3,southeast,3.3,No
2013/10/14,14:00,0.9,0.6,0.9,0.8,0.8,0.4,0.3,south-southeast,4.2,No
2013/10/14,14:10,0.9,0.6,0.9,0.8,0.8,0.4,0.3,south-southeast,4.2,No
2013/10/14,14:20,0.9,0.6,0.9,0.8,0.8,0.4,0.3,south-southeast,5.0,No
2013/10/14,14:30,0.9,0.6,0.9,0.8,0.8,0.4,0.3,south-southeast,5.5,No
2013/10/14,14:40,0.9,0.6,0.9,0.8,0.8,0.4,0.3,south-southeast,5.3,No
2013/10/14,14:50,0.9,0.6,0.9,0.8,0.8,0.4,0.3,south,5.5,No
2013/10/14,15:00,0.9,0.6,0.9,0.8,0.8,0.4,0.3,south,5.6,No
2013/10/14,15:10,0.9,0.6,0.9,0.8,0.8,0.4,0.3,south,5.0,No
2013/10/14,15:20,0.9,0.6,0.9,0.8,0.8,0.4,0.3,south,5.4,No
2013/10/14,15:30,0.9,0.6,0.9,0.8,0.8,0.4,0.3,south,5.3,No
2013/10/14,15:40,0.9,0.6,0.9,0.8,0.8,0.4,0.3,south,5.0,No
2013/10/14,15:50,0.9,0.6,0.9,0.8,0.8,0.4,0.3,south,4.8,No
2013/10/14,16:00,0.9,0.6,0.9,0.8,0.8,0.4,0.3,south,4.5,No
2013/10/14,16:10,0.9,0.6,0.9,0.8,0.8,0.4,0.3,south,5.5,No
2013/10/14,16:20,0.9,0.6,0.9,0.8,0.8,0.4,0.3,south,5.6,No
2013/10/14,16:30,0.9,0.6,0.9,0.8,0.8,0.4,0.3,south,5.3,No
2013/10/14,16:40,0.9,0.6,0.9,0.8,0.8,0.4,0.3,south,4.7,No
2013/10/14,16:50,0.9,0.6,0.9,0.8,0.8,0.4,0.3,south,5.3,No
2013/10/14,17:00,0.9,0.6,0.9,0.8,0.8,0.4,0.3,south,5.7,No
2013/10/14,17:10,0.9,0.6,0.9,0.8,0.8,0.4,0.3,south,5.1,No
2013/10/14,17:20,0.9,0.6,0.9,0.8,0.8,0.4,0.3,south,4.6,No
2013/10/14,17:30,0.9,0.6,0.9,0.8,0.8,0.4,0.3,south,4.8,No
2013/10/14,17:40,0.9,0.6,0.9,0.8,0.8,0.4,0.3,south-southwest,5.2,No
2013/10/14,17:50,0.9,0.6,0.9,0.8,0.8,0.4,0.3,south-southwest,3.9,No
2013/10/14,18:00,0.9,0.6,0.9,0.8,0.8,0.4,0.3,south-southwest,4.8,No
2013/10/14,18:10,0.9,0.6,0.9,0.8,0.8,0.4,0.3,south-southwest,5.6,No
2013/10/14,18:20,0.9,0.6,0.9,0.8,0.8,0.4,0.3,south-southwest,5.9,No
2013/10/14,18:30,0.9,0.6,0.9,0.8,0.8,0.4,0.3,south-southwest,5.6,No
2013/10/14,18:40,0.9,0.6,0.9,0.8,0.8,0.4,0.3,south-southwest,6.1,No
2013/10/14,18:50,0.9,0.6,0.9,0.8,0.8,0.4,0.3,south-southwest,6.7,No
2013/10/14,19:00,0.9,0.6,0.9,0.8,0.8,0.4,0.3,south-southwest,7.4,No
2013/10/14,19:10,0.9,0.6,0.9,0.8,0.8,0.4,0.3,south-southwest,7.1,No
2013/10/14,19:20,0.9,0.6,0.9,0.8,0.8,0.4,0.3,south-southwest,7.3,No
2013/10/14,19:30,0.9,0.6,0.9,0.8,0.8,0.4,0.3,south-southwest,6.4,No
2013/10/14,19:40,0.9,0.6,0.9,0.8,0.8,0.4,0.3,south-southwest,6.8,No
2013/10/14,19:50,0.9,0.6,0.9,0.8,0.8,0.4,0.3,south-southwest,6.5,No
2013/10/14,20:00,0.9,0.6,0.9,0.8,0.8,0.4,0.3,south-southwest,6.4,No
2013/10/14,20:10,0.9,0.6,0.9,0.8,0.8,0.4,0.3,south-southwest,6.1,No
2013/10/14,20:20,0.9,0.6,0.9,0.8,0.8,0.4,0.3,south-southwest,5.7,No
2013/10/14,20:30,0.9,0.6,0.9,0.8,0.8,0.4,0.3,south-southwest,5.9,No
2013/10/14,20:40,0.9,0.6,0.9,0.8,0.8,0.4,0.3,south-southwest,7.4,No
2013/10/14,20:50,0.9,0.6,0.9,0.8,0.8,0.4,0.3,south-southwest,7.7,No
2013/10/14,21:00,0.9,0.6,0.9,0.8,0.8,0.4,0.3,south-southwest,7.2,No
2013/10/14,21:10,0.9,0.6,0.9,0.8,0.8,0.4,0.3,south-southwest,6.9,No
2013/10/14,21:20,0.9,0.6,0.9,0.8,0.8,0.4,0.3,south-southwest,7.4,No
2013/10/14,21:30,0.9,0.6,0.9,0.8,0.8,0.4,0.3,south-southwest,6.5,No
2013/10/14,21:40,0.9,0.6,0.9,0.8,0.8,0.4,0.3,south-southwest,7.1,No
2013/10/14,21:50,0.9,0.6,0.9,0.8,0.8,0.4,0.3,south-southwest,8.0,No
2013/10/14,22:00,0.9,0.6,0.9,0.8,0.8,0.4,0.3,south-southwest,7.5,No
2013/10/14,22:10,0.9,0.6,0.9,0.8,0.8,0.4,0.3,south-southwest,6.8,No
2013/10/14,22:20,0.9,0.6,0.9,0.8,0.8,0.4,0.3,south-southwest,7.4,No
2013/10/14,22:30,0.9,0.6,0.9,0.8,0.8,0.4,0.3,south-southwest,8.3,No
2013/10/14,22:40,0.9,0.6,0.9,0.8,0.8,0.4,0.3,south-southwest,7.6,No
2013/10/14,22:50,0.9,0.6,0.9,0.8,0.8,0.4,0.3,south-southwest,8.8,No
2013/10/14,23:00,0.9,0.6,0.9,0.8,0.8,0.4,0.3,south-southwest,9.2,No
2013/10/14,23:10,0.9,0.6,0.9,0.8,0.8,0.4,0.3,south-southwest,9.2,No
2013/10/14,23:20,0.9,0.6,0.9,0.8,0.8,0.4,0.3,south-southwest,9.8,No
2013/10/14,23:30,0.9,0.6,0.9,0.8,0.8,0.4,0.3,south-southwest,8.9,No
2013/10/14,23:40,0.9,0.6,0.9,0.8,0.8,0.4,0.3,south-southwest,9.0,No
2013/10/14,23:50,0.9,0.6,0.9,0.8,0.8,0.4,0.3,south-southwest,9.5,No
